Погода Большое Нарымское

Погода Большое Нарымское : погода сейчас, прогноз погоды и архив. Всё, что Вы хотите узнать о погоде Большое Нарымское!

Поиск расширенной информации на нашем сайте:

Полезная информация: последние блоки аренда офиса в бизнес центре ЭКО , Мироновская ул., 25 описание помещений на сайте

Другие новости

Новости СМИ2

Главная страница сайта

Новости сайта

03.07.2017

Напоминаем, что на нашем специализированном сайте Метеоцентр.Азия вы можете получить высокодетализированные автоматические прогнозы погоды по пунктам России, СНГ и мира в авиационном формате (включающие направление и скорость ветра, видимость, явления погоды, количество и форму облачности, нижнюю и верхнюю границу облачности).

Рекомендуем: Самая актуальная информация напосим курс тут.

Погода Большое Нарымское - сегодня

Время (UTC), дата Ветер
(°,м/с) 
Видим.   Явления Облачность Т
(°С)
Тd
(°С)
f(%) Тe
(°С)
Pmin
(гПа)
dP
(гПа)
Po
(мм)
O2
(г/м3)
Тmin Tmax R s Состояние
почвы
18 15.10.17 280 (З) н/о    9/4 1000 м кучево-дожд., средняя, верхняя 
[Cb cap|Ac trans|Ci fib]
+7.4 +1.3 65 +7  1019.3  0.4  728  285    +15.9       
21 15.10.17 180 (Ю) н/о    10/8 1000 м кучево-дожд., средняя 
[Cb cap|Ac und]
+8.3 +2.2 65 +8  1018.4  -0.7  728  284           
00 16.10.17 070 (В) н/о    9/9 1000 м кучево-дожд. 
[Cb cap]
+8.5 +4 73 +9  1018.6  0.2  728  284    -0.6       
03 16.10.17 270 (З) 20000 м    9/8 1000 м кучево-дожд., средняя 
[Cb cap|Ac As]
+9.7 +3.6 66 +10  1018.8  0.4  728  283  +5.8         
06 16.10.17 240 (ЮЗ) 20000 м    8/4 1500 м средняя 
[Cu med, cong|Ac As]
+15.6 +4.7 48 +16  1016.3  -1.4  727  276  +5.8         
09 16.10.17 240 (ЮЗ) 20000 м    9/5 1500 м средняя 
[Cu Sc|Ac und]
+14.2 +5.7 57 +14  1015.8  -0.7  727  277           
12 16.10.17 070 (В) н/о    8/5 1500 м верхняя 
[Sc|Ci fib]
+12.7 +5.5 62 +14  1016.3  0.2  727  279    +0.9       
15 16.10.17 тихо ()   н/о    4/1 1500 м верхняя 
[Sc|Ci fib]
+6.3 +3.5 82 +6  1018.7  1.2  728  286    +18.2       
18 16.10.17 010 (С) н/о    1/0 верхняя 
[Ci fib]
+3.3 +1.5 88 +4  1020.4  1.1  729  290    +18.2       
21 16.10.17 тихо ()   н/о    1/0 верхняя 
[Ci fib]
+1.8 -0.1 87 +2  1020.6  -0.1  728  292           
00 17.10.17 090 (В) н/о    1/0 верхняя 
[Ci fib]
+0.2 -0.9 92 +1  1021.4  0.5  729  294           
03 17.10.17 тихо ()   20000 м    4/0 верхняя 
[Ci fib]
+5.2 +1.8 79 +5  1021  0.5  729  288  -0.5         
06 17.10.17 240 (ЮЗ) 20000 м    9/0 средняя, верхняя 
[Ac lent|Ci]
+12.5 +4.8 59 +13  1018.5  -1.1  728  280  -0.5         
09 17.10.17 250 (З) 20000 м    9/0 средняя, верхняя 
[Ac lent|Ci]
+15.2 +4.4 48 +16  1016.2  -1.8  727  277           
12 17.10.17 тихо ()   н/о    10/8 1000 м кучево-дожд., средняя 
[Cb cap|Ac und]
+11.6 +6.9 73 +12  1017.3  0.5  727  280           
15 17.10.17 020 (С) н/о    9/5 1000 м кучево-дожд., средняя 
[Cb cap|Ac As]
+10.5 +6.8 78 +12  1017.1  -0.4  727  281    +15.4       
18 17.10.17 250 (З) н/о    8/4 1000 м кучево-дожд., средняя 
[Cb cap|Ac As]
+8.8 +4.3 73 +9  1015.2  2.1  726  282    +15.4       
21 17.10.17 010 (С) н/о    4/1 1500 м верхняя 
[Sc|Ci fib]
+4.7 +1.7 81 +4  1014.8  -1.1  725  287           
00 18.10.17 040 (СВ) н/о    9/8 1500 м средняя 
[Sc|Ac und]
+4 +2 87 +5  1013.9  -0.9  724  287    +0.2       
03 18.10.17 070 (В) 20000 м    9/4 1500 м средняя, верхняя 
[Sc|Ac lent|Ci]
+4.8 +2.4 84 +4  1013.6  -0.2  724  286  +2.6         
06 18.10.17 250 (З) 20000 м    6/3 1500 м средняя, верхняя 
[Sc|Ac lent|Cc]
+15.3 +4.1 47 +16  1011.2  -0.8  723  275  +2.6         
09 18.10.17 210 (ЮЗ) 20000 м    6/3 1500 м средняя, верхняя 
[Sc|Ac lent|Ci sp]
+16.8 +2.5 38 +18  1010.3  -0.6  723  274           
12 18.10.17 030 (СВ) н/о    9/3 1500 м средняя, верхняя 
[Sc|Ac lent|Ci fib]
+12.5 +3.5 54 +13  1009.9  -0.8  722  278    +0.8       
15 18.10.17 тихо ()   н/о    8/1 1500 м средняя, верхняя 
[Sc|Ac lent|Ci fib]
+6.4 +3.4 81 +6  1012.9  1.8  724  284    +17.4       
18 18.10.17 тихо ()   н/о    10/5 930 м средняя 
[Sc|Ac und]
+6.6 +4.1 84 +7  1014.1  1.2  725  284  -0.2  +17.6  130  474  неравномерный
сухой снег
100% 
Время (UTC), дата Ветер
(°,м/с) 
Видим.   Явления Облачность Т
(°С)
Тd
(°С)
f(%) Тe
(°С)
Pmin
(гПа)
dP
(гПа)
Po
(мм)
O2
(г/м3)
Тmin Tmax R s Состояние
почвы

Для получения пояснительной информации подведите курсор к названию столбца.

ПОГОДА Большое Нарымское - архив

Всё, что Вы хотите узнать о погоде Большое Нарымское - удобно и подробно!

Выберите нужную дату (начиная с 1 января 2015* года) и нажмите кнопку "Найти".
Будут отображены архивные сводки погоды по пункту Большое Нарымское, начиная с указанной даты.


Отображать данные в формате CSV (для использования в таблицах Excel)


Внимание! Наш архив погоды предназначен исключительно для личного некоммерческого использования в познавательных целях. Если Вам необходимы официальные справки о состоянии погоды (для производственных, юридических, коммерческих и т.п. целей), обращайтесь в органы Росгидромета.

*Примечание: данная дата относится к архиву по метеостанциям СССР (Россия, СНГ, Балтия).
Архив по метеостанциям Зарубежной Европы и Азии (кроме Китая) хранится 10 дней, по другим регионам земного шара (Китай, Африка, Америка, Австралия, Океания) - 1 день.

Большое Нарымское - район местоположения метеостанции


Название, широта, долгота, высота метеостанции:
Большое Нарымское 49.2°ш. 84.5°д. 401 м над ур. моря [Казахстан]

Дополнительная информация

В oтличие oт бoльшинства пoгoдных сайтoв мы публикуем пoдрoбную метеoинфoрмацию в детальнoм прoфессиoнальнoм фoрмате.

Характеристики температуры и влажнoсти вoздуха измеряются на высoте 2 м в тени вдали oт зданий и деревьев.
Скoрoсть ветра измеряется на высoте 10 м (на урoвне рoста челoвека скoрoсть ветра ниже в 1.5-2 раза). Если метеoстанция нахoдится в гoрoде или в лесу, тo скoрoсть ветра занижена на 2-4 м/с пo сравнению с oткрытым местoм. Скoрoсть ветра над акватoриями крупных рек и oзёр, а также на вершинах хoлмoв на 2-5 м/с выше, чем в oбычных услoвиях.
Атмoсфернoе давление в разных тoчках местнoсти мoжет значительнo oтличаться oт давления на метеoстанции, в зависимoсти oт услoвий рельефа (при пoдъёме на 10 м давление пoнижается примернo на 1 мм рт.ст.).